Change the Weather History Date:

Tuesday, August 13, 2013

  Actual Average Record
Temperature  
Mean Temperature 83 °F -  
Max Temperature 90 °F 89 °F - ()
Min Temperature 76 °F 75 °F - ()
Cooling Degree Days 18    
Growing Degree Days 33 (Base 50)    
Moisture  
Dew Point 75 °F    
Average Humidity 73    
Maximum Humidity 89    
Minimum Humidity 58    
Precipitation  
Precipitation 0.00 in 0.26 in - ()
Sea Level Pressure  
Sea Level Pressure 30.02 in    
Wind  
Wind Speed 4 mph ()    
Max Wind Speed 10 mph    
Max Gust Speed -    
Visibility 6.8 miles    
Events      
T = Trace of Precipitation, MM = Missing Value Source: Averaged Metar Reports

Daily Weather History Graph

Daily Weather History Graph

Search for Another Location

Airport or City:

Trip Planner

Search our weather history database for the weather conditions in past years. The results will help you decide how hot, cold, wet, or windy it might be!

Date:

Astronomy

Aug. 13, 2013 Rise Set
Actual Time 6:43 AM EDT 7:45 PM EDT
Civil Twilight 6:19 AM EDT 8:09 PM EDT
Nautical Twilight 5:50 AM EDT 8:38 PM EDT
Astronomical Twilight 5:21 AM EDT 9:07 PM EDT
Moon 12:47 PM EDT (8/13) No Moon Set
Length of Visible Light 13h 50m
Length of Day
13h 02m
Waxing Crescent, 41% of the Moon is Illuminated
Aug 13
Waxing Crescent
Aug 14
First Quarter
Aug 20
Full
Aug 28
Last Quarter
Sep 5
New

Hourly Weather History & Observations

Time (EDT) Temp. Heat Index Dew Point Humidity Pressure Visibility Wind Dir Wind Speed Gust Speed Precip Events Conditions
12:00 AM 80.6 °F 86.2 °F 75.2 °F 84% 30.04 in 6.2 mi ESE 3.5 mph - N/A   Scattered Clouds
1:00 AM 80.6 °F 86.2 °F 75.2 °F 84% 30.04 in 6.2 mi ESE 3.5 mph - N/A   Scattered Clouds
2:00 AM 81 °F - 76 °F 82% 30.02 in 9 mi ESE 2.3 mph - -   Scattered Clouds
2:00 AM 80.6 °F 87.1 °F 77.0 °F 89% 30.02 in 6.2 mi ESE 2.3 mph - N/A   Partly Cloudy
4:00 AM 80.6 °F 85.4 °F 73.4 °F 79% 30.01 in 6.2 mi ESE 5.8 mph - N/A   Scattered Clouds
5:00 AM 80 °F - 75 °F 81% 30.02 in 9 mi ESE 4.6 mph - -   Scattered Clouds
5:00 AM 78.8 °F - 75.2 °F 89% 30.02 in 6.2 mi ESE 4.6 mph - N/A   Partly Cloudy
6:00 AM 80.6 °F 85.4 °F 73.4 °F 79% 30.02 in 6.2 mi Variable 2.3 mph - N/A   Partly Cloudy
7:00 AM 78.8 °F - 73.4 °F 83% 30.02 in 6.2 mi Calm Calm - N/A   Partly Cloudy
8:00 AM 80 °F - 76 °F 82% 30.04 in 9 mi 2.3 mph - -   Scattered Clouds
8:00 AM 80.6 °F 86.2 °F 75.2 °F 84% 30.04 in 6.2 mi Variable 2.3 mph - N/A   Partly Cloudy
9:00 AM 84.2 °F 90.9 °F 73.4 °F 70% 30.04 in 6.2 mi East 3.5 mph - N/A   Scattered Clouds
10:00 AM 86.0 °F 93.4 °F 73.4 °F 66% 30.05 in 6.2 mi SE 5.8 mph - N/A   Scattered Clouds
11:00 AM 88 °F - 75 °F 58% 30.06 in 9 mi ESE 5.8 mph - -   Partly Cloudy
11:00 AM 87.8 °F 97.6 °F 75.2 °F 66% 30.06 in 6.2 mi ESE 5.8 mph - N/A   Scattered Clouds
12:00 PM 87.8 °F 95.6 °F 73.4 °F 62% 30.06 in 6.2 mi SE 9.2 mph - N/A   Scattered Clouds
1:00 PM 87.8 °F 95.6 °F 73.4 °F 62% 30.05 in 6.2 mi SE 10.4 mph - N/A   Scattered Clouds
2:00 PM 87.8 °F 97.6 °F 75.2 °F 66% 30.03 in 6.2 mi ESE 8.1 mph - N/A   Smoke
3:00 PM 86.0 °F 93.4 °F 73.4 °F 66% 30.01 in 6.2 mi ESE 8.1 mph - N/A   Scattered Clouds
4:00 PM 86.0 °F 91.8 °F 71.6 °F 62% 30.00 in 6.2 mi SSE 8.1 mph - N/A   Scattered Clouds
5:00 PM 87 °F - 76 °F 62% 29.99 in 9 mi SE 9.2 mph - -  
5:00 PM 86.0 °F 95.1 °F 75.2 °F 70% 29.98 in 6.2 mi SE 9.2 mph - N/A   Scattered Clouds
6:00 PM 86.0 °F 93.4 °F 73.4 °F 66% 30.00 in 6.2 mi ESE 6.9 mph - N/A   Scattered Clouds
7:00 PM 86.0 °F 93.4 °F 73.4 °F 66% 29.99 in 6.2 mi SE 6.9 mph - N/A   Partly Cloudy
8:00 PM 84 °F - 76 °F 72% 30.01 in 8 mi SE 6.9 mph - -   Smoke
8:00 PM 84.2 °F 94.1 °F 77.0 °F 79% 30.01 in 6.2 mi SE 6.9 mph - N/A   Scattered Clouds
9:00 PM 84.2 °F 90.9 °F 73.4 °F 70% 30.01 in 6.2 mi ESE 3.5 mph - N/A   Partly Cloudy
10:00 PM 82.4 °F 88.2 °F 73.4 °F 74% 30.02 in 6.2 mi ESE 5.8 mph - N/A   Partly Cloudy
11:00 PM 83 °F - 76 °F 73% 30.04 in 8 mi SSE 3.5 mph - -  
11:00 PM 84.2 °F 92.3 °F 75.2 °F 74% 30.04 in 6.2 mi SSE 3.5 mph - N/A   Partly Cloudy